This is the latest recevied weather packets stored in our database for station/object SV9FBP. If no packets are shown the sender has not sent any weather packets the latest 10 day(s).
| Time | Temp. | Humidity | Pressure | Rain* | Wind** | Luminosity | Snow |
|---|---|---|---|---|---|---|---|
| 1777630930 | 22.22° C | 63% | 1013 hPa | 0 mm | - | - | - |
| 1777630028 | 21.67° C | 66% | 1012.7 hPa | 0 mm | - | - | - |
| 1777629126 | 21.11° C | 66% | 1012.9 hPa | 0 mm | - | - | - |
| 1777628224 | 20.56° C | 66% | 1012.8 hPa | 0 mm | - | - | - |
| 1777627321 | 20.56° C | 65% | 1012.6 hPa | 0 mm | - | - | - |
| 1777626419 | 21.67° C | 67% | 1012.6 hPa | 0 mm | - | - | - |
| 1777625517 | 20.56° C | 69% | 1012.6 hPa | 0 mm | - | - | - |
| 1777624615 | 20.56° C | 71% | 1012.5 hPa | 0 mm | - | - | - |
| 1777623716 | 20° C | 71% | 1012.4 hPa | 0 mm | - | - | - |
| 1777622810 | 20.56° C | 71% | 1012.4 hPa | 0 mm | - | - | - |
| 1777621909 | 20.56° C | 71% | 1012.3 hPa | 0 mm | - | - | - |
| 1777621006 | 20.56° C | 70% | 1012.2 hPa | 0 mm | - | - | - |
| 1777620104 | 20° C | 68% | 1011.7 hPa | 0 mm | - | - | - |
| 1777619202 | 20° C | 64% | 1011.8 hPa | 0 mm | - | - | - |
| 1777618299 | 20° C | 60% | 1011.8 hPa | 0 mm | - | - | - |
| 1777617398 | 20° C | 54% | 1011.6 hPa | 0 mm | - | - | - |
| 1777616496 | 20° C | 49% | 1011.2 hPa | 0 mm | - | - | - |
| 1777615593 | 20° C | 50% | 1011.3 hPa | 0 mm | - | - | - |
| 1777614691 | 19.44° C | 50% | 1011 hPa | 0 mm | - | - | - |
| 1777613789 | 18.89° C | 51% | 1011.1 hPa | 0 mm | - | - | - |
| 1777612887 | 18.33° C | 54% | 1011 hPa | 0 mm | - | - | - |
| 1777611985 | 17.78° C | 58% | 1011 hPa | 0 mm | - | - | - |
| 1777611082 | 16.67° C | 68% | 1011.1 hPa | 0 mm | - | - | - |
| 1777610180 | 16.67° C | 68% | 1010.9 hPa | 0 mm | - | - | - |
| 1777609278 | 16.11° C | 67% | 1010.7 hPa | 0 mm | - | - | - |
* Rain latest hour (hover to see other rain measurements)
** Current wind speed in m/s (hover to see current wind gust speed)